OK1PMP-6 Weather Reports


time (UTC)temp
F
wind
direction
speed
knots
gust
knots
rain 1hr
in
rain 24hr
in
rain mn
in
humidity
%
barometer
mb
20260507203017 48 312 0.9 2.6 0.00 0.23 0.07 91 1018.5
20260507201515 48 335 0.0 1.7 0.00 0.27 0.07 91 1018.3
20260507200027 48 319 1.7 3.5 0.00 0.32 0.07 91 1018.2
20260507194508 48 329 1.7 3.5 0.00 0.33 0.07 91 1018.1
20260507193027 49 25 1.7 5.2 0.00 0.33 0.07 91 1017.6
20260507191504 50 307 0.9 3.5 0.00 0.33 0.07 89 1017.6
20260507190007 51 289 0.0 2.6 0.00 0.33 0.07 87 1017.3
20260507184504 52 283 0.0 1.7 0.00 0.33 0.07 85 1017.4
20260507182957 52 312 0.0 2.6 0.00 0.33 0.07 85 1016.8
20260507181457 53 333 0.0 1.7 0.00 0.33 0.07 84 1016.9
20260507175956 55 298 0.0 2.6 0.00 0.33 0.07 79 1016.8
20260507174544 57 288 0.9 2.6 0.00 0.33 0.07 74 1016.6
20260507173021 59 311 0.0 3.5 0.00 0.33 0.07 73 1016.6
20260507171456 58 287 0.0 3.5 0.00 0.35 0.07 72 1016.4
20260507170009 58 287 1.7 6.1 0.00 0.37 0.07 73 1016.1
20260507164458 58 287 1.7 7.8 0.00 0.43 0.07 71 1016.1
20260507162956 58 319 2.6 7.8 0.00 0.46 0.07 69 1015.8
20260507161517 60 260 1.7 9.6 0.00 0.47 0.07 64 1015.9
20260507155959 64 260 2.6 7.8 0.00 0.48 0.07 56 1015.8
20260507154458 65 266 1.7 7.0 0.00 0.48 0.07 53 1015.5
20260507152957 67 250 1.7 7.0 0.00 0.48 0.07 49 1015.5
20260507151457 69 305 3.5 6.1 0.00 0.48 0.07 46 1015.1
20260507145957 67 276 2.6 7.8 0.00 0.48 0.07 51 1015.7
20260507144455 65 263 0.9 7.0 0.00 0.48 0.07 56 1015.6
20260507142955 62 240 0.0 8.7 0.00 0.48 0.07 57 1015.5
20260507141501 64 262 3.5 9.6 0.00 0.48 0.07 55 1015.4
20260507135956 68 305 3.5 12.2 0.00 0.48 0.07 50 1015.4
20260507134456 64 237 5.2 9.6 0.00 0.48 0.07 56 1015.5
20260507132955 63 222 4.3 11.3 0.00 0.48 0.07 60 1015.7
20260507131454 63 249 0.0 9.6 0.00 0.48 0.07 59 1015.6
20260507125954 63 211 4.3 9.6 0.00 0.48 0.07 56 1015.7
20260507124456 63 285 0.9 13.0 0.00 0.48 0.07 59 1015.6
20260507123002 64 249 0.0 8.7 0.00 0.48 0.07 60 1015.2
20260507121456 63 229 1.7 12.2 0.00 0.48 0.07 61 1015.2
20260507115954 62 239 2.6 11.3 0.00 0.48 0.07 64 1015.1
20260507114455 64 232 1.7 7.8 0.00 0.48 0.07 61 1014.9
20260507112955 64 267 1.7 13.0 0.00 0.48 0.07 63 1014.8
20260507111454 64 248 6.1 11.3 0.00 0.48 0.07 62 1014.9
20260507105955 67 283 2.6 13.9 0.00 0.48 0.07 59 1014.8
20260507104502 66 257 1.7 9.6 0.00 0.48 0.07 61 1014.7
20260507102956 64 198 4.3 13.0 0.00 0.48 0.07 62 1014.9
20260507101455 63 201 2.6 9.6 0.00 0.48 0.07 66 1014.7
20260507095957 62 283 3.5 12.2 0.00 0.48 0.07 68 1014.6
20260507094456 62 214 2.6 9.6 0.00 0.48 0.07 67 1014.7
20260507092955 62 243 2.6 8.7 0.00 0.48 0.07 68 1014.3
20260507091455 61 265 2.6 7.8 0.00 0.48 0.07 70 1014.2
20260507090001 63 252 4.3 9.6 0.00 0.48 0.07 69 1014.1
20260507084455 61 270 3.5 11.3 0.00 0.48 0.07 74 1013.9
20260507082955 60 290 1.7 8.7 0.00 0.48 0.07 76 1013.9
20260507081455 60 217 5.2 13.0 0.00 0.48 0.07 76 1013.8
20260507074456 59 269 1.7 8.7 0.00 0.48 0.07 83 1013.8
20260507072955 58 269 1.7 8.7 0.00 0.48 0.07 82 1013.5
20260507071449 57 226 3.5 8.7 0.00 0.48 0.07 85 1013.6
20260507065951 56 225 0.9 7.0 0.00 0.48 0.07 86 1013.3
20260507064451 56 263 0.0 7.8 0.00 0.48 0.07 86 1013.3
20260507062956 56 240 0.9 6.1 0.00 0.48 0.07 89 1013.3
20260507055938 55 264 1.7 7.0 0.00 0.48 0.07 90 1013.0
20260507054438 55 204 3.5 8.7 0.00 0.48 0.07 92 1012.6
20260507052939 53 245 0.0 6.1 0.00 0.48 0.07 94 1012.4
20260507051434 53 251 1.7 5.2 0.00 0.48 0.07 95 1012.3
20260507045934 52 235 0.0 7.0 0.00 0.48 0.07 96 1012.3
20260507044434 51 250 0.0 5.2 0.00 0.48 0.07 96 1012.2
20260507042931 51 221 0.9 5.2 0.00 0.48 0.07 96 1011.8
20260507041437 52 255 0.9 5.2 0.00 0.48 0.07 97 1011.7
20260507035930 52 224 1.7 5.2 0.00 0.48 0.07 97 1011.5
20260507034430 52 235 1.7 6.1 0.00 0.49 0.07 96 1011.4
20260507032930 52 194 0.9 7.0 0.00 0.49 0.07 96 1011.5
20260507031430 53 212 2.6 6.1 0.00 0.49 0.07 97 1011.2
20260507025931 53 204 3.5 5.2 0.00 0.49 0.07 97 1011.1
20260507024354 53 252 0.9 1.7 0.00 0.49 0.07 98 1011.0
20260507022833 53 253 0.0 1.7 0.00 0.49 0.07 98 1011.0
20260507020915 53 253 0.0 0.0 0.00 0.49 0.07 98 1011.1
20260507015413 53 253 0.0 0.0 0.00 0.49 0.07 97 1010.9
20260507013705 53 253 0.0 0.0 0.00 0.49 0.07 97 1011.2
20260507012203 53 253 0.0 1.7 0.00 0.49 0.07 97 1011.1
20260507010626 53 253 0.0 0.0 0.00 0.49 0.07 97 1011.0
20260507005124 53 253 0.0 0.0 0.00 0.49 0.07 97 1011.0
20260507003614 53 253 0.0 0.9 0.00 0.48 0.07 96 1010.5
20260507002115 53 253 0.0 2.6 0.00 0.48 0.07 97 1010.9
20260507000603 53 253 0.0 3.5 0.00 0.48 0.07 97 1010.6
20260506235100 53 358 0.0 1.7 0.00 0.49 0.07 97 1010.1
20260506233559 53 358 0.0 2.6 0.02 0.50 0.07 97 1009.4
20260506232054 53 46 0.0 1.7 0.04 0.50 0.07 97 1009.2
20260506230555 53 53 0.0 6.1 0.06 0.50 0.07 97 1009.2
20260506225057 53 293 0.9 7.8 0.08 0.50 0.07 97 1008.8
20260506223555 54 110 0.9 2.6 0.08 0.48 0.04 96 1009.3
20260506222054 54 202 0.9 7.0 0.11 0.46 0.04 97 1010.5
20260506220542 54 187 2.6 7.8 0.09 0.44 0.01 97 1011.0
20260506215043 55 254 1.7 6.1 0.08 0.42 0.42 96 1010.4
20260506213540 55 181 1.7 6.1 0.11 0.39 0.40 96 1010.5
20260506212049 54 257 2.6 7.8 0.11 0.36 0.36 96 1010.0
20260506210543 54 250 3.5 3.5 0.15 0.35 0.35 96 1009.2
20260506205046 54 78 1.7 3.5 0.17 0.34 0.34 95 1008.4